Location: ????????
(54.9045°N, 39.1041°E)
Time: 08:41:36
(UTC+00:00)

Cosmos 1943 Rocket - Visible Passes

Search period start: 22 July 2024 00:00
Search period end: 01 August 2024 00:00
Orbit: 811 x 843 km, 71.0° (Epoch: 21 July)

Date Brightness Start Highest point End Pass type
(mag) Time Alt. Az. Time Alt. Az. Time Alt. Az.
22 Jul 2.5 19:53:31 10° SW 19:59:10 72° NW 20:04:47 10° NNE visible
22 Jul 4.4 21:39:17 10° W 21:43:51 25° NNW 21:48:25 10° NNE visible
22 Jul 4.9 23:26:24 10° NW 23:29:40 15° N 23:32:55 10° NNE visible
23 Jul 2.3 19:34:03 10° SW 19:39:43 79° NW 19:45:21 10° NNE visible
23 Jul 4.3 21:19:38 10° W 21:24:19 26° NNW 21:28:58 10° NNE visible
23 Jul 4.9 23:06:46 10° NW 23:10:04 16° N 23:13:21 10° NNE visible
24 Jul 2.3 19:14:36 10° SSW 19:20:15 86° WNW 19:25:55 10° NNE visible
24 Jul 4.3 21:00:00 10° W 21:04:47 28° NNW 21:09:33 10° NNE visible
24 Jul 5.0 22:47:08 10° NW 22:50:28 16° N 22:53:47 10° NNE visible
25 Jul 4.9 00:32:32 10° NNW 00:36:28 19° NNE 00:40:21 10° ENE visible
25 Jul 2.2 18:55:11 10° SSW 19:00:49 87° ESE 19:06:28 10° NE visible
25 Jul 4.2 20:40:22 10° W 20:45:14 29° NW 20:50:07 10° NNE visible
25 Jul 5.0 22:27:28 10° NW 22:30:52 16° N 22:34:16 10° NNE visible
26 Jul 5.0 00:13:05 10° NNW 00:16:53 18° NNE 00:20:40 10° ENE visible
26 Jul 2.2 18:35:46 10° SSW 18:41:23 79° ESE 18:47:01 10° NE visible
26 Jul 4.1 20:20:44 10° W 20:25:42 31° NW 20:30:41 10° NNE visible
26 Jul 5.0 22:07:49 10° NW 22:11:16 16° N 22:14:44 10° NNE visible
26 Jul 5.0 23:53:36 10° NNW 23:57:18 18° NNE 00:00:59 10° ENE visible
27 Jul 2.2 18:16:22 10° SSW 18:21:58 72° ESE 18:27:34 10° NE visible
27 Jul 4.0 20:01:08 10° WSW 20:06:11 33° NW 20:11:15 10° NNE visible
27 Jul 5.1 21:48:08 10° NW 21:51:41 17° NNW 21:55:13 10° NNE visible
27 Jul 5.1 23:34:07 10° NNW 23:37:43 17° NNE 23:41:18 10° NE visible
28 Jul 3.9 19:41:31 10° WSW 19:46:41 36° NW 19:51:49 10° NNE visible
28 Jul 5.1 21:28:28 10° NW 21:32:06 17° NNW 21:35:43 10° NNE visible
28 Jul 5.1 23:14:37 10° NNW 23:18:08 17° NNE 23:21:38 10° NE visible
29 Jul 3.8 19:21:56 10° WSW 19:27:10 38° NW 19:32:24 10° NNE visible
29 Jul 5.1 21:08:47 10° WNW 21:12:31 18° NNW 21:16:14 10° NNE visible
29 Jul 5.2 22:55:06 10° NNW 22:58:32 16° N 23:01:57 10° NE visible
30 Jul 4.4 00:39:10 10° NNW 00:44:06 31° NE 00:48:59 10° E visible
30 Jul 3.7 19:02:22 10° WSW 19:07:40 41° NW 19:12:58 10° NNE visible
30 Jul 5.1 20:49:06 10° WNW 20:52:56 18° NNW 20:56:44 10° NNE visible
30 Jul 5.3 22:35:35 10° NNW 22:38:56 16° N 22:42:18 10° NE visible
31 Jul 4.5 00:19:44 10° NNW 00:24:34 29° NE 00:29:22 10° E visible
31 Jul 3.5 18:42:47 10° WSW 18:48:10 45° NW 18:53:32 10° NNE visible
31 Jul 5.1 20:29:25 10° WNW 20:33:21 19° NNW 20:37:16 10° NNE visible
31 Jul 5.3 22:16:03 10° NNW 22:19:21 16° N 22:22:38 10° NE visible
